When you browse on this site, cookies collect data to enhance your experience and personalize the content and advertising you see.
Visit our Privacy Policy to learn more. By continuing to use the site, you agree to this use of cookies and data.
  • In Österreich
  • Länderverzeichnis
  • Für 7 Tage
  • Wassertemperatur
  • Satellitenkarten
  • Wetterkarte
  • News
  • Widgets
  • user-avatar
    Anmelden

    Stündliche Wetter Kumamoto

    Heute, 21 Juli, Sonntag

    Zeit Temperatur Niederschläge Wind Luftdruck Luftfeuchtigkeit
    00:00 +29°C° 1.3 mm 4 m/S 754 mmHg 84%
    01:00 +28°C° 11.5 mm 3 m/S 754 mmHg 88%
    02:00 +28°C° 11.5 mm 3 m/S 754 mmHg 92%
    03:00 +28°C° 0 mm 3 m/S 754 mmHg 95%
    04:00 +28°C° 10.1 mm 3 m/S 754 mmHg 94%
    05:00 +28°C° 10.1 mm 3 m/S 754 mmHg 94%
    06:00 +28°C° 10.1 mm 3 m/S 754 mmHg 94%
    07:00 +28°C° 2.4 mm 3 m/S 755 mmHg 93%
    08:00 +28°C° 2.4 mm 3 m/S 755 mmHg 92%
    09:00 +29°C° 0 mm 2 m/S 755 mmHg 84%
    10:00 +29°C° 2.6 mm 3 m/S 755 mmHg 84%
    11:00 +29°C° 2.6 mm 3 m/S 756 mmHg 85%
    12:00 +29°C° 2.6 mm 3 m/S 756 mmHg 85%
    13:00 +30°C° 1 mm 4 m/S 755 mmHg 82%
    14:00 +32°C° 1 mm 4 m/S 755 mmHg 79%
    15:00 +31°C° 0 mm 3 m/S 755 mmHg 77%
    16:00 +31°C° 0.8 mm 3 m/S 755 mmHg 78%
    17:00 +31°C° 0.8 mm 3 m/S 755 mmHg 78%
    18:00 +31°C° 0.8 mm 3 m/S 755 mmHg 79%
    19:00 +30°C° 0.6 mm 3 m/S 755 mmHg 80%
    20:00 +29°C° 0.6 mm 2 m/S 755 mmHg 82%
    21:00 +29°C° 0 mm 2 m/S 756 mmHg 82%
    22:00 +29°C° 0.3 mm 2 m/S 756 mmHg 83%
    23:00 +28°C° 0.3 mm 2 m/S 756 mmHg 83%

    Morgen, 22 Juli, Montag

    Zeit Temperatur Niederschläge Wind Luftdruck Luftfeuchtigkeit
    00:00 +28°C° 0.3 mm 2 m/S 756 mmHg 84%
    01:00 +28°C° 0 mm 2 m/S 756 mmHg 84%
    02:00 +28°C° 0 mm 2 m/S 755 mmHg 85%
    03:00 +28°C° 0 mm 1 m/S 755 mmHg 85%
    04:00 +28°C° 0 mm 1 m/S 755 mmHg 85%
    05:00 +28°C° 0 mm 1 m/S 755 mmHg 85%
    06:00 +28°C° 0 mm 2 m/S 755 mmHg 85%
    07:00 +28°C° 0 mm 2 m/S 755 mmHg 83%
    08:00 +29°C° 0 mm 3 m/S 755 mmHg 82%
    09:00 +29°C° 0 mm 3 m/S 755 mmHg 80%
    10:00 +30°C° 0.8 mm 3 m/S 755 mmHg 77%
    11:00 +31°C° 0.8 mm 3 m/S 756 mmHg 74%
    12:00 +33°C° 0.8 mm 3 m/S 756 mmHg 72%
    13:00 +33°C° 0.6 mm 3 m/S 755 mmHg 72%
    14:00 +33°C° 0.6 mm 3 m/S 755 mmHg 72%
    15:00 +31°C° 0.6 mm 2 m/S 755 mmHg 71%
    16:00 +31°C° 0.1 mm 3 m/S 755 mmHg 71%
    17:00 +31°C° 0.1 mm 3 m/S 755 mmHg 70%
    18:00 +31°C° 0.1 mm 3 m/S 754 mmHg 69%
    19:00 +31°C° 0 mm 2 m/S 755 mmHg 72%
    20:00 +30°C° 0 mm 2 m/S 755 mmHg 76%
    21:00 +29°C° 0 mm 2 m/S 755 mmHg 79%
    22:00 +28°C° 0 mm 2 m/S 755 mmHg 81%
    23:00 +28°C° 0 mm 2 m/S 755 mmHg 83%

    übermorgen, 23 Juli, Dienstag

    Zeit Temperatur Niederschläge Wind Luftdruck Luftfeuchtigkeit
    00:00 +28°C° 0 mm 2 m/S 755 mmHg 84%
    01:00 +28°C° 0 mm 1 m/S 755 mmHg 84%
    02:00 +27°C° 0 mm 1 m/S 755 mmHg 84%
    03:00 +27°C° 0 mm 1 m/S 755 mmHg 85%
    04:00 +27°C° 0.2 mm 1 m/S 755 mmHg 85%
    05:00 +27°C° 0.2 mm 1 m/S 755 mmHg 84%
    06:00 +27°C° 0.2 mm 1 m/S 755 mmHg 84%
    07:00 +28°C° 0.1 mm 1 m/S 755 mmHg 81%
    08:00 +29°C° 0.1 mm 1 m/S 755 mmHg 77%
    09:00 +30°C° 0.1 mm 2 m/S 755 mmHg 73%
    10:00 +31°C° 0 mm 2 m/S 755 mmHg 67%
    11:00 +34°C° 0 mm 2 m/S 754 mmHg 62%
    12:00 +35°C° 0 mm 3 m/S 754 mmHg 56%
    13:00 +35°C° 0 mm 3 m/S 754 mmHg 56%
    14:00 +35°C° 0 mm 3 m/S 753 mmHg 56%
    15:00 +35°C° 0 mm 4 m/S 753 mmHg 56%
    16:00 +34°C° 0 mm 3 m/S 753 mmHg 60%
    17:00 +33°C° 0 mm 3 m/S 753 mmHg 64%
    18:00 +32°C° 0 mm 2 m/S 753 mmHg 68%
    19:00 +31°C° 0 mm 2 m/S 753 mmHg 72%
    20:00 +30°C° 0 mm 2 m/S 753 mmHg 76%
    21:00 +29°C° 0 mm 1 m/S 754 mmHg 80%
    22:00 +29°C° 0 mm 2 m/S 754 mmHg 82%
    23:00 +29°C° 0 mm 2 m/S 754 mmHg 84%

    24 Juli, Mittwoch

    Zeit Temperatur Niederschläge Wind Luftdruck Luftfeuchtigkeit
    00:00 +28°C° 0 mm 2 m/S 754 mmHg 86%
    01:00 +28°C° 0 mm 1 m/S 754 mmHg 87%
    02:00 +28°C° 0 mm 1 m/S 753 mmHg 87%
    03:00 +28°C° 0 mm 1 m/S 753 mmHg 88%
    04:00 +28°C° 0 mm 1 m/S 753 mmHg 88%
    05:00 +28°C° 0 mm 1 m/S 754 mmHg 88%
    06:00 +28°C° 0 mm 1 m/S 754 mmHg 88%
    07:00 +29°C° 0 mm 1 m/S 754 mmHg 81%
    08:00 +31°C° 0 mm 1 m/S 754 mmHg 74%
    09:00 +32°C° 0 mm 1 m/S 755 mmHg 67%
    10:00 +33°C° 0 mm 1 m/S 754 mmHg 62%
    11:00 +35°C° 0 mm 2 m/S 754 mmHg 57%
    12:00 +36°C° 0 mm 2 m/S 754 mmHg 52%
    13:00 +36°C° 0 mm 3 m/S 754 mmHg 52%
    14:00 +36°C° 0 mm 3 m/S 754 mmHg 52%
    15:00 +36°C° 0 mm 3 m/S 754 mmHg 51%
    16:00 +35°C° 0 mm 3 m/S 754 mmHg 56%
    17:00 +34°C° 0 mm 3 m/S 754 mmHg 60%
    18:00 +32°C° 0 mm 2 m/S 754 mmHg 65%
    19:00 +31°C° 0 mm 2 m/S 754 mmHg 69%
    20:00 +30°C° 0 mm 2 m/S 754 mmHg 74%
    21:00 +29°C° 0 mm 1 m/S 755 mmHg 79%
    22:00 +29°C° 0 mm 1 m/S 755 mmHg 80%
    23:00 +29°C° 0 mm 1 m/S 755 mmHg 82%

    25 Juli, Donnerstag

    Zeit Temperatur Niederschläge Wind Luftdruck Luftfeuchtigkeit
    00:00 +28°C° 0 mm 1 m/S 755 mmHg 84%
    01:00 +28°C° 0 mm 1 m/S 755 mmHg 85%
    02:00 +28°C° 0 mm 1 m/S 755 mmHg 86%
    03:00 +28°C° 0 mm 1 m/S 755 mmHg 87%
    04:00 +26°C° 0 mm 0 m/S 755 mmHg 87%
    05:00 +26°C° 0 mm 0 m/S 755 mmHg 87%
    06:00 +26°C° 0 mm 0 m/S 755 mmHg 87%
    07:00 +29°C° 0 mm 1 m/S 756 mmHg 80%
    08:00 +31°C° 0 mm 1 m/S 756 mmHg 72%
    09:00 +33°C° 0 mm 1 m/S 756 mmHg 65%
    10:00 +34°C° 0 mm 1 m/S 756 mmHg 59%
    11:00 +36°C° 0 mm 2 m/S 756 mmHg 54%
    12:00 +37°C° 0 mm 2 m/S 755 mmHg 48%
    13:00 +36°C° 0.1 mm 3 m/S 755 mmHg 49%
    14:00 +36°C° 0.1 mm 3 m/S 755 mmHg 50%
    15:00 +36°C° 0.1 mm 3 m/S 755 mmHg 51%
    16:00 +35°C° 0.1 mm 3 m/S 755 mmHg 56%
    17:00 +34°C° 0.1 mm 3 m/S 755 mmHg 61%
    18:00 +33°C° 0.1 mm 3 m/S 754 mmHg 66%
    19:00 +31°C° 0 mm 2 m/S 755 mmHg 70%
    20:00 +30°C° 0 mm 2 m/S 755 mmHg 75%
    21:00 +29°C° 0 mm 2 m/S 755 mmHg 79%
    22:00 +29°C° 0 mm 1 m/S 755 mmHg 81%
    23:00 +29°C° 0 mm 1 m/S 755 mmHg 84%

    26 Juli, Freitag

    Zeit Temperatur Niederschläge Wind Luftdruck Luftfeuchtigkeit
    00:00 +28°C° 0 mm 1 m/S 755 mmHg 86%
    01:00 +28°C° 0 mm 1 m/S 755 mmHg 86%
    02:00 +28°C° 0 mm 1 m/S 755 mmHg 86%
    03:00 +28°C° 0 mm 1 m/S 755 mmHg 87%
    04:00 +28°C° 0 mm 1 m/S 755 mmHg 86%
    05:00 +28°C° 0 mm 1 m/S 755 mmHg 86%
    06:00 +28°C° 0 mm 1 m/S 755 mmHg 86%
    07:00 +29°C° 0 mm 1 m/S 755 mmHg 78%
    08:00 +31°C° 0 mm 1 m/S 755 mmHg 70%
    09:00 +32°C° 0 mm 2 m/S 756 mmHg 61%
    10:00 +34°C° 0 mm 2 m/S 756 mmHg 60%
    11:00 +34°C° 0 mm 3 m/S 755 mmHg 58%
    12:00 +35°C° 0 mm 4 m/S 755 mmHg 56%
    13:00 +35°C° 0 mm 4 m/S 755 mmHg 54%
    14:00 +35°C° 0 mm 4 m/S 755 mmHg 53%
    15:00 +36°C° 0 mm 4 m/S 755 mmHg 52%
    16:00 +35°C° 0 mm 4 m/S 755 mmHg 56%
    17:00 +34°C° 0 mm 3 m/S 755 mmHg 60%
    18:00 +33°C° 0 mm 3 m/S 755 mmHg 64%
    19:00 +31°C° 0 mm 2 m/S 755 mmHg 69%
    20:00 +30°C° 0 mm 2 m/S 755 mmHg 75%
    21:00 +29°C° 0 mm 2 m/S 756 mmHg 80%
    22:00 +29°C° 0 mm 2 m/S 756 mmHg 82%
    23:00 +28°C° 0 mm 2 m/S 756 mmHg 83%
    Mehr zeigen